Find Starlink 32581

NORAD ID: 62184 Int'l Des: 2024-225 Owner: SPXS Country: US Constellation: starlink operational
LEOCIRCULAR

当前视图

正在加载3D地球...

About Starlink 32581

Starlink 32581 (NORAD 62184) is a starlink constellation satellite (v2 mini) launched Nov 30, 2024 by SPXS of US. It operates in LEO, CIRCULAR orbit with a mass of 730.00 kg.

关于 Starlink 32581

正在加载描述...

即将过境

Passes for default location (London). Set your location on the main map for personalized predictions.

高度历史

Loading altitude history...

两行轨道根数

1 62184U 24225X 26170.67566480 .00001981 00000-0 17372-3 0 9996
2 62184 70.0007 257.2206 0003440 268.4998 91.5768 14.98336218 85406
Epoch: Jun 19, 2026 • Age: 9 hours

当前状态

高度 574.4 km
速度 7.57 km/s
星下点 16.19°N, 147.74°E
发射日期 Nov 30, 2024
运行时间 1.5 years
类型 internet

技术详情

分类 Payload
质量 730.00 kg
干质量 700.00 kg
总质量 730.00 kg
长度 0.30 m
直径 4.10 m
跨度 29.00 m
形状 Box + pan
制造商 SPXS
平台类型 Starlink V2M
阶段状态 In Orbit
所有者/国家 SPXS/US

Most Searched